When you browse on this site, cookies collect data to enhance your experience and personalize the content and advertising you see.
Visit our Privacy Policy to learn more. By continuing to use the site, you agree to this use of cookies and data.
EN

Hourly Weather Santiago del Estero

Today, 9 July, Thursday

Time Temperature Precipitation Wind Pressure Humidity
00:00 +7°C° 0 mm 2 mps 748 mmHg 65%
01:00 +7°C° 0 mm 2 mps 748 mmHg 69%
02:00 +6°C° 0 mm 2 mps 748 mmHg 73%
03:00 +6°C° 0 mm 2 mps 748 mmHg 76%
04:00 +5°C° 0 mm 2 mps 748 mmHg 80%
05:00 +5°C° 0 mm 2 mps 748 mmHg 84%
06:00 +5°C° 0 mm 2 mps 748 mmHg 82%
07:00 +5°C° 0 mm 2 mps 748 mmHg 81%
08:00 +6°C° 0 mm 2 mps 748 mmHg 79%
09:00 +8°C° 0 mm 3 mps 748 mmHg 70%
10:00 +11°C° 0 mm 3 mps 748 mmHg 60%
11:00 +13°C° 0 mm 4 mps 748 mmHg 51%
12:00 +15°C° 0 mm 4 mps 747 mmHg 47%
13:00 +16°C° 0 mm 5 mps 746 mmHg 43%
14:00 +19°C° 0 mm 5 mps 745 mmHg 39%
15:00 +19°C° 0 mm 5 mps 744 mmHg 40%
16:00 +18°C° 0 mm 4 mps 743 mmHg 41%
17:00 +18°C° 0 mm 4 mps 742 mmHg 42%
18:00 +17°C° 0 mm 4 mps 743 mmHg 46%
19:00 +14°C° 0 mm 4 mps 743 mmHg 50%
20:00 +13°C° 0 mm 4 mps 743 mmHg 54%
21:00 +13°C° 0 mm 5 mps 742 mmHg 55%
22:00 +12°C° 0 mm 5 mps 742 mmHg 57%
23:00 +12°C° 0 mm 5 mps 741 mmHg 58%

Tomorrow, 10 July, Friday

Time Temperature Precipitation Wind Pressure Humidity
00:00 +10°C° 0 mm 5 mps 740 mmHg 60%
01:00 +11°C° 0 mm 4 mps 740 mmHg 63%
02:00 +10°C° 0 mm 4 mps 739 mmHg 65%
03:00 +10°C° 0 mm 4 mps 738 mmHg 69%
04:00 +10°C° 0 mm 4 mps 738 mmHg 72%
05:00 +8°C° 0 mm 4 mps 738 mmHg 76%
06:00 +10°C° 0 mm 4 mps 738 mmHg 78%
07:00 +10°C° 0 mm 3 mps 738 mmHg 80%
08:00 +10°C° 0 mm 2 mps 739 mmHg 82%
09:00 +12°C° 0 mm 3 mps 739 mmHg 73%
10:00 +15°C° 0 mm 4 mps 739 mmHg 65%
11:00 +17°C° 0 mm 5 mps 739 mmHg 56%
12:00 +20°C° 0 mm 4 mps 739 mmHg 51%
13:00 +21°C° 0 mm 3 mps 738 mmHg 46%
14:00 +22°C° 0 mm 3 mps 738 mmHg 41%
15:00 +23°C° 0 mm 2 mps 738 mmHg 42%
16:00 +21°C° 0 mm 2 mps 739 mmHg 44%
17:00 +22°C° 0 mm 1 mps 739 mmHg 45%
18:00 +20°C° 0 mm 2 mps 740 mmHg 50%
19:00 +18°C° 0 mm 3 mps 741 mmHg 54%
20:00 +17°C° 0 mm 4 mps 742 mmHg 58%
21:00 +15°C° 0 mm 4 mps 743 mmHg 60%
22:00 +15°C° 0 mm 5 mps 744 mmHg 61%
23:00 +14°C° 0 mm 5 mps 744 mmHg 62%

Day after tomorrow, 11 July, Saturday

Time Temperature Precipitation Wind Pressure Humidity
00:00 +14°C° 0 mm 4 mps 744 mmHg 64%
01:00 +13°C° 0 mm 4 mps 745 mmHg 66%
02:00 +12°C° 0 mm 4 mps 745 mmHg 69%
03:00 +12°C° 0 mm 3 mps 744 mmHg 72%
04:00 +11°C° 0 mm 3 mps 744 mmHg 75%
05:00 +10°C° 0 mm 3 mps 744 mmHg 78%
06:00 +10°C° 0 mm 2 mps 744 mmHg 78%
07:00 +10°C° 0 mm 2 mps 745 mmHg 78%
08:00 +11°C° 0 mm 1 mps 745 mmHg 79%
09:00 +13°C° 0 mm 1 mps 744 mmHg 75%
10:00 +14°C° 0 mm 1 mps 744 mmHg 71%
11:00 +16°C° 0 mm 1 mps 744 mmHg 68%
12:00 +18°C° 0 mm 1 mps 743 mmHg 64%
13:00 +19°C° 0 mm 1 mps 742 mmHg 60%
14:00 +20°C° 0 mm 1 mps 741 mmHg 56%
15:00 +20°C° 0 mm 1 mps 741 mmHg 56%
16:00 +20°C° 0 mm 1 mps 740 mmHg 56%
17:00 +20°C° 0 mm 1 mps 740 mmHg 56%
18:00 +19°C° 0 mm 1 mps 740 mmHg 60%
19:00 +18°C° 0 mm 1 mps 740 mmHg 64%
20:00 +15°C° 0 mm 0 mps 741 mmHg 67%
21:00 +16°C° 0 mm 1 mps 741 mmHg 70%
22:00 +15°C° 0 mm 1 mps 741 mmHg 73%
23:00 +15°C° 0 mm 1 mps 741 mmHg 76%

12 July, Sunday

Time Temperature Precipitation Wind Pressure Humidity
00:00 +14°C° 0 mm 1 mps 741 mmHg 79%
01:00 +13°C° 0 mm 1 mps 740 mmHg 82%
02:00 +12°C° 0 mm 1 mps 740 mmHg 84%
03:00 +12°C° 0 mm 1 mps 740 mmHg 86%
04:00 +10°C° 0 mm 0 mps 740 mmHg 87%
05:00 +10°C° 0 mm 0 mps 739 mmHg 88%
06:00 +10°C° 0 mm 0 mps 740 mmHg 86%
07:00 +11°C° 0 mm 0 mps 740 mmHg 84%
08:00 +12°C° 0 mm 0 mps 741 mmHg 82%
09:00 +15°C° 0 mm 1 mps 741 mmHg 73%
10:00 +19°C° 0 mm 1 mps 741 mmHg 63%
11:00 +21°C° 0 mm 1 mps 741 mmHg 54%
12:00 +22°C° 0 mm 1 mps 740 mmHg 51%
13:00 +24°C° 0 mm 1 mps 740 mmHg 47%
14:00 +25°C° 0 mm 2 mps 739 mmHg 44%
15:00 +24°C° 0 mm 1 mps 739 mmHg 45%
16:00 +24°C° 0 mm 1 mps 738 mmHg 47%
17:00 +24°C° 0 mm 1 mps 738 mmHg 49%
18:00 +22°C° 0 mm 1 mps 739 mmHg 55%
19:00 +20°C° 0 mm 1 mps 739 mmHg 62%
20:00 +18°C° 0 mm 1 mps 740 mmHg 69%
21:00 +18°C° 0 mm 1 mps 740 mmHg 70%
22:00 +18°C° 0 mm 1 mps 740 mmHg 70%
23:00 +16°C° 0 mm 2 mps 741 mmHg 71%

13 July, Monday

Time Temperature Precipitation Wind Pressure Humidity
00:00 +16°C° 0 mm 2 mps 741 mmHg 73%
01:00 +15°C° 0 mm 2 mps 741 mmHg 76%
02:00 +15°C° 0 mm 2 mps 741 mmHg 79%
03:00 +14°C° 0 mm 2 mps 741 mmHg 81%
04:00 +14°C° 0 mm 2 mps 741 mmHg 82%
05:00 +13°C° 0 mm 3 mps 741 mmHg 84%
06:00 +13°C° 0 mm 3 mps 742 mmHg 85%
07:00 +12°C° 0 mm 3 mps 743 mmHg 87%
08:00 +12°C° 0 mm 3 mps 743 mmHg 88%
09:00 +14°C° 0 mm 3 mps 744 mmHg 81%
10:00 +17°C° 0 mm 4 mps 744 mmHg 74%
11:00 +19°C° 0 mm 4 mps 745 mmHg 67%
12:00 +20°C° 0 mm 4 mps 745 mmHg 63%
13:00 +21°C° 0 mm 4 mps 744 mmHg 60%
14:00 +22°C° 0 mm 3 mps 744 mmHg 57%
15:00 +21°C° 0 mm 4 mps 744 mmHg 57%
16:00 +21°C° 0 mm 4 mps 745 mmHg 57%
17:00 +20°C° 0 mm 4 mps 745 mmHg 57%
18:00 +20°C° 0 mm 4 mps 746 mmHg 56%
19:00 +19°C° 0 mm 5 mps 746 mmHg 56%
20:00 +17°C° 0 mm 5 mps 747 mmHg 56%
21:00 +17°C° 0 mm 5 mps 748 mmHg 55%
22:00 +16°C° 0 mm 5 mps 748 mmHg 54%
23:00 +16°C° 0 mm 5 mps 749 mmHg 54%

14 July, Tuesday

Time Temperature Precipitation Wind Pressure Humidity
00:00 +15°C° 0 mm 5 mps 749 mmHg 54%
01:00 +15°C° 0 mm 4 mps 749 mmHg 54%
02:00 +14°C° 0 mm 4 mps 749 mmHg 54%
03:00 +14°C° 0 mm 3 mps 749 mmHg 54%
04:00 +14°C° 0 mm 3 mps 749 mmHg 55%
05:00 +13°C° 0 mm 3 mps 748 mmHg 55%
06:00 +14°C° 0 mm 2 mps 749 mmHg 55%
07:00 +14°C° 0 mm 2 mps 749 mmHg 55%
08:00 +14°C° 0 mm 2 mps 749 mmHg 56%
09:00 +14°C° 0 mm 2 mps 750 mmHg 55%
10:00 +14°C° 0 mm 2 mps 750 mmHg 54%
11:00 +14°C° 0 mm 2 mps 750 mmHg 53%
12:00 +15°C° 0 mm 2 mps 749 mmHg 52%
13:00 +15°C° 0 mm 2 mps 748 mmHg 51%
14:00 +15°C° 0 mm 2 mps 748 mmHg 51%
15:00 +15°C° 0 mm 2 mps 747 mmHg 51%
16:00 +15°C° 0 mm 2 mps 747 mmHg 51%
17:00 +15°C° 0 mm 1 mps 747 mmHg 51%
18:00 +15°C° 0 mm 1 mps 747 mmHg 51%
19:00 +14°C° 0 mm 1 mps 748 mmHg 51%
20:00 +14°C° 0 mm 1 mps 748 mmHg 52%
21:00 +14°C° 0 mm 1 mps 748 mmHg 52%
22:00 +13°C° 0 mm 0 mps 748 mmHg 52%
23:00 +13°C° 0 mm 0 mps 749 mmHg 52%
Show more